• In Italy
  • List of Countries
  • For 7 days
  • Water Temperature
  • Satellite Maps
  • Weather Map
  • Weather Widgets
  • user-avatar
    Login

    Hourly Weather Portalegre

    Today, 25 September, Tuesday

    Time Temperature Precipitation Wind Pressure Humidity
    00:00 +26°C° 0 mm 1 mps 726 mmHg 34%
    01:00 +25°C° 0 mm 1 mps 725 mmHg 36%
    02:00 +25°C° 0 mm 1 mps 725 mmHg 38%
    03:00 +24°C° 0 mm 1 mps 725 mmHg 40%
    04:00 +24°C° 0 mm 1 mps 725 mmHg 41%
    05:00 +23°C° 0 mm 2 mps 725 mmHg 43%
    06:00 +21°C° 0 mm 2 mps 725 mmHg 43%
    07:00 +24°C° 0 mm 2 mps 726 mmHg 39%
    08:00 +26°C° 0 mm 2 mps 726 mmHg 35%
    09:00 +28°C° 0 mm 2 mps 726 mmHg 31%
    10:00 +30°C° 0 mm 2 mps 727 mmHg 27%
    11:00 +32°C° 0 mm 2 mps 727 mmHg 24%
    12:00 +35°C° 0 mm 2 mps 727 mmHg 22%
    13:00 +35°C° 0 mm 1 mps 727 mmHg 21%
    14:00 +36°C° 0 mm 1 mps 726 mmHg 19%
    15:00 +37°C° 0 mm 1 mps 726 mmHg 18%
    16:00 +35°C° 0 mm 1 mps 726 mmHg 20%
    17:00 +34°C° 0 mm 1 mps 725 mmHg 22%
    18:00 +32°C° 0 mm 1 mps 725 mmHg 24%
    19:00 +31°C° 0 mm 1 mps 725 mmHg 27%
    20:00 +29°C° 0 mm 1 mps 726 mmHg 29%
    21:00 +27°C° 0 mm 2 mps 726 mmHg 32%
    22:00 +26°C° 0 mm 2 mps 726 mmHg 35%
    23:00 +25°C° 0 mm 1 mps 726 mmHg 37%

    Tomorrow, 26 September, Wednesday

    Time Temperature Precipitation Wind Pressure Humidity
    00:00 +24°C° 0 mm 1 mps 726 mmHg 40%
    01:00 +24°C° 0 mm 1 mps 726 mmHg 42%
    02:00 +23°C° 0 mm 1 mps 726 mmHg 44%
    03:00 +23°C° 0 mm 1 mps 726 mmHg 46%
    04:00 +22°C° 0 mm 1 mps 726 mmHg 47%
    05:00 +22°C° 0 mm 1 mps 726 mmHg 49%
    06:00 +21°C° 0 mm 1 mps 727 mmHg 50%
    07:00 +23°C° 0 mm 1 mps 727 mmHg 47%
    08:00 +25°C° 0 mm 1 mps 728 mmHg 43%
    09:00 +27°C° 0 mm 1 mps 728 mmHg 40%
    10:00 +29°C° 0 mm 1 mps 729 mmHg 36%
    11:00 +31°C° 0 mm 1 mps 729 mmHg 32%
    12:00 +33°C° 0 mm 1 mps 729 mmHg 28%
    13:00 +34°C° 0 mm 2 mps 728 mmHg 27%
    14:00 +35°C° 0 mm 2 mps 728 mmHg 26%
    15:00 +35°C° 0 mm 2 mps 728 mmHg 25%
    16:00 +34°C° 0 mm 2 mps 728 mmHg 27%
    17:00 +32°C° 0 mm 2 mps 728 mmHg 29%
    18:00 +31°C° 0 mm 2 mps 728 mmHg 31%
    19:00 +30°C° 0.1 mm 2 mps 728 mmHg 36%
    20:00 +28°C° 0.1 mm 3 mps 729 mmHg 40%
    21:00 +27°C° 0.1 mm 3 mps 729 mmHg 44%
    22:00 +26°C° 0 mm 3 mps 729 mmHg 46%
    23:00 +26°C° 0 mm 3 mps 729 mmHg 48%

    Day after tomorrow, 27 September, Thursday

    Time Temperature Precipitation Wind Pressure Humidity
    00:00 +26°C° 0 mm 3 mps 729 mmHg 51%
    01:00 +25°C° 0 mm 3 mps 729 mmHg 53%
    02:00 +23°C° 0 mm 4 mps 729 mmHg 56%
    03:00 +23°C° 0 mm 4 mps 729 mmHg 59%
    04:00 +22°C° 0 mm 4 mps 729 mmHg 61%
    05:00 +22°C° 0 mm 4 mps 729 mmHg 63%
    06:00 +21°C° 0 mm 4 mps 729 mmHg 65%
    07:00 +22°C° 0 mm 4 mps 729 mmHg 62%
    08:00 +23°C° 0 mm 4 mps 730 mmHg 58%
    09:00 +26°C° 0 mm 5 mps 730 mmHg 54%
    10:00 +27°C° 0 mm 4 mps 730 mmHg 48%
    11:00 +29°C° 0 mm 4 mps 730 mmHg 43%
    12:00 +32°C° 0 mm 4 mps 730 mmHg 37%
    13:00 +33°C° 0 mm 3 mps 729 mmHg 35%
    14:00 +33°C° 0 mm 3 mps 729 mmHg 32%
    15:00 +34°C° 0 mm 3 mps 728 mmHg 29%
    16:00 +33°C° 0 mm 3 mps 728 mmHg 31%
    17:00 +31°C° 0 mm 2 mps 728 mmHg 33%
    18:00 +30°C° 0 mm 2 mps 728 mmHg 35%
    19:00 +29°C° 0 mm 2 mps 728 mmHg 39%
    20:00 +27°C° 0 mm 2 mps 728 mmHg 42%
    21:00 +26°C° 0 mm 3 mps 728 mmHg 46%
    22:00 +26°C° 0 mm 3 mps 728 mmHg 48%
    23:00 +25°C° 0 mm 2 mps 728 mmHg 50%

    28 September, Friday

    Time Temperature Precipitation Wind Pressure Humidity
    00:00 +24°C° 0 mm 2 mps 728 mmHg 52%
    01:00 +24°C° 0 mm 2 mps 727 mmHg 53%
    02:00 +23°C° 0 mm 2 mps 727 mmHg 55%
    03:00 +23°C° 0 mm 2 mps 727 mmHg 56%
    04:00 +21°C° 0 mm 2 mps 727 mmHg 58%
    05:00 +21°C° 0 mm 2 mps 726 mmHg 60%
    06:00 +21°C° 0 mm 1 mps 726 mmHg 62%
    07:00 +23°C° 0 mm 2 mps 727 mmHg 56%
    08:00 +25°C° 0 mm 2 mps 727 mmHg 50%
    09:00 +27°C° 0 mm 2 mps 727 mmHg 44%
    10:00 +28°C° 0 mm 2 mps 727 mmHg 39%
    11:00 +30°C° 0 mm 2 mps 727 mmHg 34%
    12:00 +32°C° 0 mm 2 mps 727 mmHg 29%
    13:00 +32°C° 0 mm 2 mps 726 mmHg 28%
    14:00 +34°C° 0 mm 2 mps 725 mmHg 27%
    15:00 +34°C° 0 mm 2 mps 725 mmHg 26%
    16:00 +32°C° 0 mm 2 mps 724 mmHg 28%
    17:00 +31°C° 0 mm 2 mps 724 mmHg 31%
    18:00 +30°C° 0 mm 1 mps 724 mmHg 33%
    19:00 +28°C° 0 mm 1 mps 724 mmHg 37%
    20:00 +27°C° 0 mm 1 mps 724 mmHg 41%
    21:00 +26°C° 0 mm 1 mps 724 mmHg 45%
    22:00 +25°C° 0 mm 1 mps 723 mmHg 48%
    23:00 +24°C° 0 mm 1 mps 723 mmHg 51%

    29 September, Saturday

    Time Temperature Precipitation Wind Pressure Humidity
    00:00 +23°C° 0 mm 1 mps 723 mmHg 54%
    01:00 +23°C° 0 mm 1 mps 722 mmHg 56%
    02:00 +23°C° 0 mm 1 mps 722 mmHg 57%
    03:00 +22°C° 0 mm 1 mps 722 mmHg 59%
    04:00 +22°C° 0 mm 1 mps 722 mmHg 60%
    05:00 +21°C° 0 mm 1 mps 722 mmHg 61%
    06:00 +19°C° 0 mm 0 mps 721 mmHg 61%
    07:00 +21°C° 0 mm 0 mps 722 mmHg 55%
    08:00 +23°C° 0 mm 0 mps 722 mmHg 49%
    09:00 +25°C° 0 mm 0 mps 723 mmHg 42%
    10:00 +29°C° 0 mm 1 mps 723 mmHg 38%
    11:00 +31°C° 0 mm 1 mps 722 mmHg 33%
    12:00 +33°C° 0 mm 1 mps 722 mmHg 28%
    13:00 +33°C° 0 mm 1 mps 722 mmHg 27%
    14:00 +32°C° 0 mm 2 mps 721 mmHg 27%
    15:00 +32°C° 0 mm 2 mps 721 mmHg 26%
    16:00 +31°C° 0 mm 2 mps 721 mmHg 28%
    17:00 +30°C° 0 mm 2 mps 721 mmHg 30%
    18:00 +29°C° 0 mm 2 mps 721 mmHg 32%
    19:00 +27°C° 0 mm 2 mps 721 mmHg 36%
    20:00 +26°C° 0 mm 2 mps 721 mmHg 39%
    21:00 +24°C° 0 mm 2 mps 721 mmHg 43%
    22:00 +23°C° 0 mm 2 mps 721 mmHg 45%
    23:00 +23°C° 0 mm 1 mps 721 mmHg 47%

    30 September, Sunday

    Time Temperature Precipitation Wind Pressure Humidity
    00:00 +22°C° 0 mm 1 mps 721 mmHg 49%
    01:00 +21°C° 0 mm 1 mps 721 mmHg 50%
    02:00 +21°C° 0 mm 1 mps 720 mmHg 51%
    03:00 +20°C° 0 mm 1 mps 720 mmHg 52%
    04:00 +20°C° 0 mm 1 mps 720 mmHg 54%
    05:00 +19°C° 0 mm 1 mps 720 mmHg 55%
    06:00 +19°C° 0 mm 1 mps 720 mmHg 56%
    07:00 +21°C° 0 mm 1 mps 721 mmHg 51%
    08:00 +22°C° 0 mm 1 mps 721 mmHg 45%
    09:00 +24°C° 0 mm 1 mps 722 mmHg 39%
    10:00 +26°C° 0 mm 1 mps 722 mmHg 35%
    11:00 +28°C° 0 mm 2 mps 722 mmHg 31%
    12:00 +30°C° 0 mm 2 mps 722 mmHg 27%
    13:00 +30°C° 0 mm 2 mps 722 mmHg 27%
    14:00 +31°C° 0 mm 2 mps 721 mmHg 26%
    15:00 +31°C° 0 mm 2 mps 721 mmHg 26%
    16:00 +30°C° 0 mm 2 mps 721 mmHg 29%
    17:00 +29°C° 0 mm 2 mps 721 mmHg 32%
    18:00 +28°C° 0 mm 2 mps 721 mmHg 35%
    19:00 +26°C° 0 mm 2 mps 721 mmHg 40%
    20:00 +25°C° 0 mm 2 mps 721 mmHg 45%
    21:00 +23°C° 0 mm 2 mps 722 mmHg 50%
    22:00 +21°C° 0.1 mm 2 mps 721 mmHg 53%
    23:00 +21°C° 0.1 mm 2 mps 721 mmHg 57%
    Show more